Back to catalog

STARLINK-37040

AliveCommunicationsVLEO
NORAD 69362·PAYLOAD·🇺🇸 United States

Launched Jun 4, 2026 from Cape Canaveral Space Force Station

Loading…

Next Passes (next 24 hours)

TLE

FreshSource: CelesTrak SupGP

Epoch: Sep 14, 2026, 16:00 UTC

1 69362C 26123K   26257.66715278  .00066005  00000+0  19500-2 0  2574
2 69362  53.1586 169.2667 0001519  94.7195 152.7297 15.34358920    18

Track STARLINK-37040 in real time with AllMySat

Download on the App Store